Year,Month,Day,Hour,Minute,Value (Times are PST for temperature in C)
2014,06,12,00,00,11.70
2014,06,12,00,01,11.70
2014,06,12,00,02,11.60
2014,06,12,00,03,11.60
2014,06,12,00,04,11.60
2014,06,12,00,05,11.60
2014,06,12,00,06,11.50
2014,06,12,00,07,11.50
2014,06,12,00,08,11.60
2014,06,12,00,09,11.60
2014,06,12,00,10,11.60
2014,06,12,00,11,11.60
2014,06,12,00,12,11.60
2014,06,12,00,13,11.60
2014,06,12,00,14,11.60
2014,06,12,00,15,11.60
2014,06,12,00,16,11.50
2014,06,12,00,17,11.50
2014,06,12,00,18,11.50
2014,06,12,00,19,11.50
2014,06,12,00,20,11.40
2014,06,12,00,21,11.40
2014,06,12,00,22,11.40
2014,06,12,00,23,11.40
2014,06,12,00,24,11.40
2014,06,12,00,25,11.40
2014,06,12,00,26,11.40
2014,06,12,00,27,11.40
2014,06,12,00,28,11.50
2014,06,12,00,29,11.50
2014,06,12,00,30,11.50
2014,06,12,00,31,11.50
2014,06,12,00,32,11.50
2014,06,12,00,33,11.40
2014,06,12,00,34,11.40
2014,06,12,00,35,11.40
2014,06,12,00,36,11.40
2014,06,12,00,37,11.40
2014,06,12,00,38,11.40
2014,06,12,00,39,11.40
2014,06,12,00,40,11.30
2014,06,12,00,41,11.30
2014,06,12,00,42,11.30
2014,06,12,00,43,11.30
2014,06,12,00,44,11.30
2014,06,12,00,45,11.30
2014,06,12,00,46,11.30
2014,06,12,00,47,11.30
2014,06,12,00,48,11.30
2014,06,12,00,49,11.30
2014,06,12,00,50,11.30
2014,06,12,00,51,11.30
2014,06,12,00,52,11.30
2014,06,12,00,53,11.30
2014,06,12,00,54,11.30
2014,06,12,00,55,11.30
2014,06,12,00,56,11.30
2014,06,12,00,57,11.30
2014,06,12,00,58,11.30
2014,06,12,00,59,11.30
2014,06,12,01,00,11.30
2014,06,12,01,01,11.30
2014,06,12,01,02,11.40
2014,06,12,01,03,11.50
2014,06,12,01,04,11.50
2014,06,12,01,05,11.50
2014,06,12,01,06,11.50
2014,06,12,01,07,11.50
2014,06,12,01,08,11.50
2014,06,12,01,09,11.40
2014,06,12,01,10,11.40
2014,06,12,01,11,11.40
2014,06,12,01,12,11.40
2014,06,12,01,13,11.40
2014,06,12,01,14,11.30
2014,06,12,01,15,11.30
2014,06,12,01,16,11.30
2014,06,12,01,17,11.30
2014,06,12,01,18,11.30
2014,06,12,01,19,11.30
2014,06,12,01,20,11.30
2014,06,12,01,21,11.30
2014,06,12,01,22,11.30
2014,06,12,01,23,11.30
2014,06,12,01,24,11.20
2014,06,12,01,25,11.20
2014,06,12,01,26,11.20
2014,06,12,01,27,11.20
2014,06,12,01,28,11.20
2014,06,12,01,29,11.10
2014,06,12,01,30,11.10
2014,06,12,01,31,11.10
2014,06,12,01,32,11.10
2014,06,12,01,33,11.10
2014,06,12,01,34,11.10
2014,06,12,01,35,11.00
2014,06,12,01,36,11.00
2014,06,12,01,37,11.00
2014,06,12,01,38,11.00
2014,06,12,01,39,11.00
2014,06,12,01,40,11.00
2014,06,12,01,41,11.00
2014,06,12,01,42,11.00
2014,06,12,01,43,11.00
2014,06,12,01,44,11.10
2014,06,12,01,45,11.10
2014,06,12,01,46,11.10
2014,06,12,01,47,11.10
2014,06,12,01,48,11.10
2014,06,12,01,49,11.10
2014,06,12,01,50,11.10
2014,06,12,01,51,11.10
2014,06,12,01,52,11.10
2014,06,12,01,53,11.10
2014,06,12,01,54,11.10
2014,06,12,01,55,11.10
2014,06,12,01,56,11.00
2014,06,12,01,57,11.10
2014,06,12,01,58,11.00
2014,06,12,01,59,11.00
2014,06,12,02,00,11.00
2014,06,12,02,01,11.00
2014,06,12,02,02,11.10
2014,06,12,02,03,11.10
2014,06,12,02,04,11.10
2014,06,12,02,05,11.10
2014,06,12,02,06,11.10
2014,06,12,02,07,11.10
2014,06,12,02,08,11.10
2014,06,12,02,09,11.10
2014,06,12,02,10,11.10
2014,06,12,02,11,11.10
2014,06,12,02,12,11.10
2014,06,12,02,13,11.10
2014,06,12,02,14,11.10
2014,06,12,02,15,11.10
2014,06,12,02,16,11.10
2014,06,12,02,17,11.00
2014,06,12,02,18,11.00
2014,06,12,02,19,11.00
2014,06,12,02,20,11.00
2014,06,12,02,21,10.90
2014,06,12,02,22,10.90
2014,06,12,02,23,10.90
2014,06,12,02,24,10.90
2014,06,12,02,25,10.90
2014,06,12,02,26,10.80
2014,06,12,02,27,10.80
2014,06,12,02,28,10.80
2014,06,12,02,29,10.80
2014,06,12,02,30,10.80
2014,06,12,02,31,10.80
2014,06,12,02,32,10.80
2014,06,12,02,33,10.80
2014,06,12,02,34,10.80
2014,06,12,02,35,10.80
2014,06,12,02,36,10.80
2014,06,12,02,37,10.80
2014,06,12,02,38,10.70
2014,06,12,02,39,10.70
2014,06,12,02,40,10.70
2014,06,12,02,41,10.70
2014,06,12,02,42,10.70
2014,06,12,02,43,10.70
2014,06,12,02,44,10.70
2014,06,12,02,45,10.70
2014,06,12,02,46,10.70
2014,06,12,02,47,10.70
2014,06,12,02,48,10.70
2014,06,12,02,49,10.70
2014,06,12,02,50,10.70
2014,06,12,02,51,10.70
2014,06,12,02,52,10.70
2014,06,12,02,53,10.70
2014,06,12,02,54,10.70
2014,06,12,02,55,10.70
2014,06,12,02,56,10.70
2014,06,12,02,57,10.70
2014,06,12,02,58,10.70
2014,06,12,02,59,10.70
2014,06,12,03,00,10.70
2014,06,12,03,01,10.70
2014,06,12,03,02,10.70
2014,06,12,03,03,10.70
2014,06,12,03,04,10.70
2014,06,12,03,05,10.80
2014,06,12,03,06,10.80
2014,06,12,03,07,10.80
2014,06,12,03,08,10.80
2014,06,12,03,09,10.80
2014,06,12,03,10,10.80
2014,06,12,03,11,10.80
2014,06,12,03,12,10.80
2014,06,12,03,13,10.80
2014,06,12,03,14,10.80
2014,06,12,03,15,10.80
2014,06,12,03,16,10.80
2014,06,12,03,17,10.80
2014,06,12,03,18,10.80
2014,06,12,03,19,10.80
2014,06,12,03,20,10.80
2014,06,12,03,21,10.70
2014,06,12,03,22,10.70
2014,06,12,03,23,10.70
2014,06,12,03,24,10.70
2014,06,12,03,25,10.70
2014,06,12,03,26,10.70
2014,06,12,03,27,10.70
2014,06,12,03,28,10.70
2014,06,12,03,29,10.70
2014,06,12,03,30,10.70
2014,06,12,03,31,10.70
2014,06,12,03,32,10.70
2014,06,12,03,33,10.70
2014,06,12,03,34,10.70
2014,06,12,03,35,10.70
2014,06,12,03,36,10.70
2014,06,12,03,37,10.70
2014,06,12,03,38,10.70
2014,06,12,03,39,10.70
2014,06,12,03,40,10.70
2014,06,12,03,41,10.70
2014,06,12,03,42,10.70
2014,06,12,03,43,10.70
2014,06,12,03,44,10.70
2014,06,12,03,45,10.70
2014,06,12,03,46,10.70
2014,06,12,03,47,10.70
2014,06,12,03,48,10.70
2014,06,12,03,49,10.70
2014,06,12,03,50,10.70
2014,06,12,03,51,10.80
2014,06,12,03,52,10.80
2014,06,12,03,53,10.80
2014,06,12,03,54,10.80
2014,06,12,03,55,10.80
2014,06,12,03,56,10.80
2014,06,12,03,57,10.80
2014,06,12,03,58,10.80
2014,06,12,03,59,10.80
2014,06,12,04,00,10.80
2014,06,12,04,01,10.80
2014,06,12,04,02,10.80
2014,06,12,04,03,10.80
2014,06,12,04,04,10.80
2014,06,12,04,05,10.80
2014,06,12,04,06,10.80
2014,06,12,04,07,10.80
2014,06,12,04,08,10.80
2014,06,12,04,09,10.80
2014,06,12,04,10,10.80
2014,06,12,04,11,10.80
2014,06,12,04,12,10.80
2014,06,12,04,13,10.80
2014,06,12,04,14,10.80
2014,06,12,04,15,10.80
2014,06,12,04,16,10.70
2014,06,12,04,17,10.70
2014,06,12,04,18,10.70
2014,06,12,04,19,10.70
2014,06,12,04,20,10.70
2014,06,12,04,21,10.70
2014,06,12,04,22,10.70
2014,06,12,04,23,10.70
2014,06,12,04,24,10.70
2014,06,12,04,25,10.70
2014,06,12,04,26,10.70
2014,06,12,04,27,10.70
2014,06,12,04,28,10.70
2014,06,12,04,29,10.70
2014,06,12,04,30,10.70
2014,06,12,04,31,10.60
2014,06,12,04,32,10.60
2014,06,12,04,33,10.60
2014,06,12,04,34,10.60
2014,06,12,04,35,10.60
2014,06,12,04,36,10.60
2014,06,12,04,37,10.60
2014,06,12,04,38,10.50
2014,06,12,04,39,10.50
2014,06,12,04,40,10.50
2014,06,12,04,41,10.40
2014,06,12,04,42,10.40
2014,06,12,04,43,10.40
2014,06,12,04,44,10.40
2014,06,12,04,45,10.40
2014,06,12,04,46,10.40
2014,06,12,04,47,10.40
2014,06,12,04,48,10.40
2014,06,12,04,49,10.40
2014,06,12,04,50,10.40
2014,06,12,04,51,10.40
2014,06,12,04,52,10.40
2014,06,12,04,53,10.40
2014,06,12,04,54,10.40
2014,06,12,04,55,10.40
2014,06,12,04,56,10.50
2014,06,12,04,57,10.50
2014,06,12,04,58,10.50
2014,06,12,04,59,10.50
2014,06,12,05,00,10.50
2014,06,12,05,01,10.50
2014,06,12,05,02,10.50
2014,06,12,05,03,10.60
2014,06,12,05,04,10.50
2014,06,12,05,05,10.50
2014,06,12,05,06,10.50
2014,06,12,05,07,10.50
2014,06,12,05,08,10.50
2014,06,12,05,09,10.50
2014,06,12,05,10,10.50
2014,06,12,05,11,10.50
2014,06,12,05,12,10.50
2014,06,12,05,13,10.40
2014,06,12,05,14,10.40
2014,06,12,05,15,10.40
2014,06,12,05,16,10.40
2014,06,12,05,17,10.40
2014,06,12,05,18,10.40
2014,06,12,05,19,10.40
2014,06,12,05,20,10.40
2014,06,12,05,21,10.40
2014,06,12,05,22,10.40
2014,06,12,05,23,10.40
2014,06,12,05,24,10.40
2014,06,12,05,25,10.40
2014,06,12,05,26,10.40
2014,06,12,05,27,10.40
2014,06,12,05,28,10.40
2014,06,12,05,29,10.40
2014,06,12,05,30,10.40
2014,06,12,05,31,10.40
2014,06,12,05,32,10.50
2014,06,12,05,33,10.50
2014,06,12,05,34,10.60
2014,06,12,05,35,10.60
2014,06,12,05,36,10.60
2014,06,12,05,37,10.60
2014,06,12,05,38,10.70
2014,06,12,05,39,10.70
2014,06,12,05,40,10.70
2014,06,12,05,41,10.70
2014,06,12,05,42,10.70
2014,06,12,05,43,10.70
2014,06,12,05,44,10.80
2014,06,12,05,45,10.80
2014,06,12,05,46,10.80
2014,06,12,05,47,10.80
2014,06,12,05,48,10.80
2014,06,12,05,49,10.80
2014,06,12,05,50,10.90
2014,06,12,05,51,10.90
2014,06,12,05,52,10.90
2014,06,12,05,53,11.00
2014,06,12,05,54,11.00
2014,06,12,05,55,11.10
2014,06,12,05,56,11.10
2014,06,12,05,57,11.10
2014,06,12,05,58,11.10
2014,06,12,05,59,11.20
2014,06,12,06,00,11.20
2014,06,12,06,01,11.20
2014,06,12,06,02,11.20
2014,06,12,06,03,11.20
2014,06,12,06,04,11.20
2014,06,12,06,05,11.20
2014,06,12,06,06,11.30
2014,06,12,06,07,11.30
2014,06,12,06,08,11.40
2014,06,12,06,09,11.40
2014,06,12,06,10,11.40
2014,06,12,06,11,11.40
2014,06,12,06,12,11.40
2014,06,12,06,13,11.50
2014,06,12,06,14,11.50
2014,06,12,06,15,11.50
2014,06,12,06,16,11.50
2014,06,12,06,17,11.50
2014,06,12,06,18,11.50
2014,06,12,06,19,11.50
2014,06,12,06,20,11.60
2014,06,12,06,21,11.60
2014,06,12,06,22,11.60
2014,06,12,06,23,11.60
2014,06,12,06,24,11.70
2014,06,12,06,25,11.70
2014,06,12,06,26,11.70
2014,06,12,06,27,11.80
2014,06,12,06,28,11.80
2014,06,12,06,29,11.80
2014,06,12,06,30,11.90
2014,06,12,06,31,11.90
2014,06,12,06,32,12.00
2014,06,12,06,33,12.00
2014,06,12,06,34,12.10
2014,06,12,06,35,12.10
2014,06,12,06,36,12.10
2014,06,12,06,37,12.20
2014,06,12,06,38,12.20
2014,06,12,06,39,12.30
2014,06,12,06,40,12.30
2014,06,12,06,41,12.30
2014,06,12,06,42,12.30
2014,06,12,06,43,12.30
2014,06,12,06,44,12.40
2014,06,12,06,45,12.40
2014,06,12,06,46,12.40
2014,06,12,06,47,12.50
2014,06,12,06,48,12.50
2014,06,12,06,49,12.60
2014,06,12,06,50,12.60
2014,06,12,06,51,12.70
2014,06,12,06,52,12.70
2014,06,12,06,53,12.80
2014,06,12,06,54,12.80
2014,06,12,06,55,12.80
2014,06,12,06,56,12.90
2014,06,12,06,57,12.90
2014,06,12,06,58,13.00
2014,06,12,06,59,13.00
2014,06,12,07,00,13.10
2014,06,12,07,01,13.10
2014,06,12,07,02,13.10
2014,06,12,07,03,13.10
2014,06,12,07,04,13.20
2014,06,12,07,05,13.20
2014,06,12,07,06,13.20
2014,06,12,07,07,13.20
2014,06,12,07,08,13.30
2014,06,12,07,09,13.30
2014,06,12,07,10,13.30
2014,06,12,07,11,13.30
2014,06,12,07,12,13.30
2014,06,12,07,13,13.30
2014,06,12,07,14,13.30
2014,06,12,07,15,13.30
2014,06,12,07,16,13.30
2014,06,12,07,17,13.40
2014,06,12,07,18,13.40
2014,06,12,07,19,13.40
2014,06,12,07,20,13.40
2014,06,12,07,21,13.50
2014,06,12,07,22,13.50
2014,06,12,07,23,13.50
2014,06,12,07,24,13.60
2014,06,12,07,25,13.60
2014,06,12,07,26,13.60
2014,06,12,07,27,13.70
2014,06,12,07,28,13.70
2014,06,12,07,29,13.70
2014,06,12,07,30,13.70
2014,06,12,07,31,13.80
2014,06,12,07,32,13.80
2014,06,12,07,33,13.80
2014,06,12,07,34,13.80
2014,06,12,07,35,13.90
2014,06,12,07,36,13.90
2014,06,12,07,37,13.90
2014,06,12,07,38,13.90
2014,06,12,07,39,14.00
2014,06,12,07,40,14.00
2014,06,12,07,41,14.00
2014,06,12,07,42,14.10
2014,06,12,07,43,14.10
2014,06,12,07,44,14.10
2014,06,12,07,45,14.20
2014,06,12,07,46,14.20
2014,06,12,07,47,14.30
2014,06,12,07,48,14.30
2014,06,12,07,49,14.30
2014,06,12,07,50,14.40
2014,06,12,07,51,14.40
2014,06,12,07,52,14.50
2014,06,12,07,53,14.50
2014,06,12,07,54,14.60
2014,06,12,07,55,14.60
2014,06,12,07,56,14.60
2014,06,12,07,57,14.70
2014,06,12,07,58,14.70
2014,06,12,07,59,14.80
2014,06,12,08,00,14.80
2014,06,12,08,01,14.80
2014,06,12,08,02,14.90
2014,06,12,08,03,14.90
2014,06,12,08,04,14.90
2014,06,12,08,05,15.00
2014,06,12,08,06,15.00
2014,06,12,08,07,15.00
2014,06,12,08,08,15.10
2014,06,12,08,09,15.10
2014,06,12,08,10,15.20
2014,06,12,08,11,15.20
2014,06,12,08,12,15.30
2014,06,12,08,13,15.40
2014,06,12,08,14,15.50
2014,06,12,08,15,15.50
2014,06,12,08,16,15.50
2014,06,12,08,17,15.50
2014,06,12,08,18,15.50
2014,06,12,08,19,15.50
2014,06,12,08,20,15.60
2014,06,12,08,21,15.60
2014,06,12,08,22,15.60
2014,06,12,08,23,15.70
2014,06,12,08,24,15.70
2014,06,12,08,25,15.70
2014,06,12,08,26,15.70
2014,06,12,08,27,15.60
2014,06,12,08,28,15.60
2014,06,12,08,29,15.60
2014,06,12,08,30,15.60
2014,06,12,08,31,15.60
2014,06,12,08,32,15.60
2014,06,12,08,33,15.60
2014,06,12,08,34,15.60
2014,06,12,08,35,15.60
2014,06,12,08,36,15.60
2014,06,12,08,37,15.70
2014,06,12,08,38,15.70
2014,06,12,08,39,15.80
2014,06,12,08,40,15.90
2014,06,12,08,41,16.00
2014,06,12,08,42,16.10
2014,06,12,08,43,16.20
2014,06,12,08,44,16.20
2014,06,12,08,45,16.30
2014,06,12,08,46,16.30
2014,06,12,08,47,16.30
2014,06,12,08,48,16.40
2014,06,12,08,49,16.50
2014,06,12,08,50,16.50
2014,06,12,08,51,16.60
2014,06,12,08,52,16.70
2014,06,12,08,53,16.70
2014,06,12,08,54,16.70
2014,06,12,08,55,16.70
2014,06,12,08,56,16.70
2014,06,12,08,57,16.70
2014,06,12,08,58,16.70
2014,06,12,08,59,16.80
2014,06,12,09,00,16.80
2014,06,12,09,01,16.90
2014,06,12,09,02,16.90
2014,06,12,09,03,16.90
2014,06,12,09,04,16.90
2014,06,12,09,05,16.90
2014,06,12,09,06,16.80
2014,06,12,09,07,16.80
2014,06,12,09,08,16.80
2014,06,12,09,09,16.80
2014,06,12,09,10,16.90
2014,06,12,09,11,16.90
2014,06,12,09,12,16.90
2014,06,12,09,13,16.90
2014,06,12,09,14,16.90
2014,06,12,09,15,17.00
2014,06,12,09,16,16.90
2014,06,12,09,17,16.90
2014,06,12,09,18,16.90
2014,06,12,09,19,16.90
2014,06,12,09,20,16.90
2014,06,12,09,21,16.90
2014,06,12,09,22,17.00
2014,06,12,09,23,17.00
2014,06,12,09,24,17.00
2014,06,12,09,25,17.00
2014,06,12,09,26,17.10
2014,06,12,09,27,17.10
2014,06,12,09,28,17.20
2014,06,12,09,29,17.30
2014,06,12,09,30,17.30
2014,06,12,09,31,17.40
2014,06,12,09,32,17.40
2014,06,12,09,33,17.40
2014,06,12,09,34,17.50
2014,06,12,09,35,17.60
2014,06,12,09,36,17.60
2014,06,12,09,37,17.60
2014,06,12,09,38,17.70
2014,06,12,09,39,17.70
2014,06,12,09,40,17.70
2014,06,12,09,41,17.70
2014,06,12,09,42,17.70
2014,06,12,09,43,17.70
2014,06,12,09,44,17.70
2014,06,12,09,45,17.70
2014,06,12,09,46,17.80
2014,06,12,09,47,17.80
2014,06,12,09,48,17.90
2014,06,12,09,49,17.90
2014,06,12,09,50,18.00
2014,06,12,09,51,18.00
2014,06,12,09,52,18.00
2014,06,12,09,53,18.00
2014,06,12,09,54,18.00
2014,06,12,09,55,17.90
2014,06,12,09,56,17.90
2014,06,12,09,57,17.90
2014,06,12,09,58,17.90
2014,06,12,09,59,17.90
2014,06,12,10,00,17.90
2014,06,12,10,01,17.90
2014,06,12,10,02,17.80
2014,06,12,10,03,17.80
2014,06,12,10,04,17.90
2014,06,12,10,05,17.90
2014,06,12,10,06,17.90
2014,06,12,10,07,18.00
2014,06,12,10,08,18.10
2014,06,12,10,09,18.20
2014,06,12,10,10,18.30
2014,06,12,10,11,18.40
2014,06,12,10,12,18.50
2014,06,12,10,13,18.60
2014,06,12,10,14,18.70
2014,06,12,10,15,18.80
2014,06,12,10,16,18.90
2014,06,12,10,17,19.00
2014,06,12,10,18,19.00
2014,06,12,10,19,18.90
2014,06,12,10,20,18.90
2014,06,12,10,21,18.90
2014,06,12,10,22,18.80
2014,06,12,10,23,18.80
2014,06,12,10,24,18.80
2014,06,12,10,25,18.80
2014,06,12,10,26,18.70
2014,06,12,10,27,18.70
2014,06,12,10,28,18.80
2014,06,12,10,29,18.80
2014,06,12,10,30,18.80
2014,06,12,10,31,18.80
2014,06,12,10,32,18.80
2014,06,12,10,33,18.80
2014,06,12,10,34,18.90
2014,06,12,10,35,18.90
2014,06,12,10,36,18.90
2014,06,12,10,37,18.90
2014,06,12,10,38,18.80
2014,06,12,10,39,18.70
2014,06,12,10,40,18.70
2014,06,12,10,41,18.60
2014,06,12,10,42,18.60
2014,06,12,10,43,18.50
2014,06,12,10,44,18.50
2014,06,12,10,45,18.40
2014,06,12,10,46,18.40
2014,06,12,10,47,18.30
2014,06,12,10,48,18.30
2014,06,12,10,49,18.30
2014,06,12,10,50,18.20
2014,06,12,10,51,18.20
2014,06,12,10,52,18.20
2014,06,12,10,53,18.20
2014,06,12,10,54,18.20
2014,06,12,10,55,18.20
2014,06,12,10,56,18.30
2014,06,12,10,57,18.30
2014,06,12,10,58,18.20
2014,06,12,10,59,18.20
2014,06,12,11,00,18.20
2014,06,12,11,01,18.10
2014,06,12,11,02,18.10
2014,06,12,11,03,18.10
2014,06,12,11,04,18.10
2014,06,12,11,05,18.10
2014,06,12,11,06,18.10
2014,06,12,11,07,18.20
2014,06,12,11,08,18.20
2014,06,12,11,09,18.20
2014,06,12,11,10,18.10
2014,06,12,11,11,18.10
2014,06,12,11,12,18.10
2014,06,12,11,13,18.00
2014,06,12,11,14,17.90
2014,06,12,11,15,17.90
2014,06,12,11,16,17.90
2014,06,12,11,17,17.90
2014,06,12,11,18,17.90
2014,06,12,11,19,17.90
2014,06,12,11,20,17.90
2014,06,12,11,21,17.90
2014,06,12,11,22,17.90
2014,06,12,11,23,17.90
2014,06,12,11,24,17.90
2014,06,12,11,25,17.90
2014,06,12,11,26,18.00
2014,06,12,11,27,18.00
2014,06,12,11,28,18.10
2014,06,12,11,29,18.20
2014,06,12,11,30,18.30
2014,06,12,11,31,18.40
2014,06,12,11,32,18.50
2014,06,12,11,33,18.60
2014,06,12,11,34,18.70
2014,06,12,11,35,18.80
2014,06,12,11,36,18.90
2014,06,12,11,37,19.00
2014,06,12,11,38,19.00
2014,06,12,11,39,19.10
2014,06,12,11,40,19.10
2014,06,12,11,41,19.10
2014,06,12,11,42,19.20
2014,06,12,11,43,19.20
2014,06,12,11,44,19.30
2014,06,12,11,45,19.20
2014,06,12,11,46,19.20
2014,06,12,11,47,19.20
2014,06,12,11,48,19.20
2014,06,12,11,49,19.20
2014,06,12,11,50,19.20
2014,06,12,11,51,19.10
2014,06,12,11,52,19.00
2014,06,12,11,53,18.90
2014,06,12,11,54,18.90
2014,06,12,11,55,18.80
2014,06,12,11,56,18.70
2014,06,12,11,57,18.70
2014,06,12,11,58,18.60
2014,06,12,11,59,18.50
2014,06,12,12,00,18.40
2014,06,12,12,01,18.40
2014,06,12,12,02,18.30
2014,06,12,12,03,18.30
2014,06,12,12,04,18.30
2014,06,12,12,05,18.30
2014,06,12,12,06,18.30
2014,06,12,12,07,18.40
2014,06,12,12,08,18.40
2014,06,12,12,09,18.40
2014,06,12,12,10,18.40
2014,06,12,12,11,18.40
2014,06,12,12,12,18.40
2014,06,12,12,13,18.30
2014,06,12,12,14,18.30
2014,06,12,12,15,18.30
2014,06,12,12,16,18.30
2014,06,12,12,17,18.30
2014,06,12,12,18,18.30
2014,06,12,12,19,18.30
2014,06,12,12,20,18.30
2014,06,12,12,21,18.30
2014,06,12,12,22,18.40
2014,06,12,12,23,18.40
2014,06,12,12,24,18.40
2014,06,12,12,25,18.50
2014,06,12,12,26,18.50
2014,06,12,12,27,18.60
2014,06,12,12,28,18.70
2014,06,12,12,29,18.70
2014,06,12,12,30,18.80
2014,06,12,12,31,18.80
2014,06,12,12,32,18.90
2014,06,12,12,33,19.00
2014,06,12,12,34,19.10
2014,06,12,12,35,19.10
2014,06,12,12,36,19.10
2014,06,12,12,37,19.10
2014,06,12,12,38,19.10
2014,06,12,12,39,19.20
2014,06,12,12,40,19.20
2014,06,12,12,41,19.20
2014,06,12,12,42,19.30
2014,06,12,12,43,19.30
2014,06,12,12,44,19.40
2014,06,12,12,45,19.40
2014,06,12,12,46,19.40
2014,06,12,12,47,19.40
2014,06,12,12,48,19.40
2014,06,12,12,49,19.40
2014,06,12,12,50,19.40
2014,06,12,12,51,19.50
2014,06,12,12,52,19.40
2014,06,12,12,53,19.50
2014,06,12,12,54,19.50
2014,06,12,12,55,19.50
2014,06,12,12,56,19.50
2014,06,12,12,57,19.60
2014,06,12,12,58,19.60
2014,06,12,12,59,19.60
2014,06,12,13,00,19.70
2014,06,12,13,01,19.80
2014,06,12,13,02,19.80
2014,06,12,13,03,19.90
2014,06,12,13,04,19.90
2014,06,12,13,05,19.90
2014,06,12,13,06,19.90
2014,06,12,13,07,20.00
2014,06,12,13,08,20.00
2014,06,12,13,09,20.10
2014,06,12,13,10,20.10
2014,06,12,13,11,20.10
2014,06,12,13,12,20.10
2014,06,12,13,13,20.00
2014,06,12,13,14,20.00
2014,06,12,13,15,19.90
2014,06,12,13,16,19.90
2014,06,12,13,17,19.90
2014,06,12,13,18,19.90
2014,06,12,13,19,19.90
2014,06,12,13,20,19.90
2014,06,12,13,21,20.00
2014,06,12,13,22,20.00
2014,06,12,13,23,20.10
2014,06,12,13,24,20.20
2014,06,12,13,25,20.30
2014,06,12,13,26,20.30
2014,06,12,13,27,20.40
2014,06,12,13,28,20.40
2014,06,12,13,29,20.40
2014,06,12,13,30,20.50
2014,06,12,13,31,20.60
2014,06,12,13,32,20.60
2014,06,12,13,33,20.60
2014,06,12,13,34,20.70
2014,06,12,13,35,20.70
2014,06,12,13,36,20.80
2014,06,12,13,37,20.80
2014,06,12,13,38,20.90
2014,06,12,13,39,20.90
2014,06,12,13,40,21.00
2014,06,12,13,41,21.00
2014,06,12,13,42,21.00
2014,06,12,13,43,21.00
2014,06,12,13,44,21.10
2014,06,12,13,45,21.10
2014,06,12,13,46,21.20
2014,06,12,13,47,21.20
2014,06,12,13,48,21.20
2014,06,12,13,49,21.30
2014,06,12,13,50,21.30
2014,06,12,13,51,21.30
2014,06,12,13,52,21.40
2014,06,12,13,53,21.40
2014,06,12,13,54,21.50
2014,06,12,13,55,21.50
2014,06,12,13,56,21.60
2014,06,12,13,57,21.60
2014,06,12,13,58,21.70
2014,06,12,13,59,21.80
2014,06,12,14,00,21.80
2014,06,12,14,01,22.00
2014,06,12,14,02,22.10
2014,06,12,14,03,22.10
2014,06,12,14,04,22.00
2014,06,12,14,05,22.00
2014,06,12,14,06,22.00
2014,06,12,14,07,21.90
2014,06,12,14,08,21.80
2014,06,12,14,09,21.80
2014,06,12,14,10,21.80
2014,06,12,14,11,21.80
2014,06,12,14,12,21.80
2014,06,12,14,13,21.80
2014,06,12,14,14,21.80
2014,06,12,14,15,21.80
2014,06,12,14,16,21.80
2014,06,12,14,17,21.70
2014,06,12,14,18,21.60
2014,06,12,14,19,21.60
2014,06,12,14,20,21.50
2014,06,12,14,21,21.50
2014,06,12,14,22,21.40
2014,06,12,14,23,21.40
2014,06,12,14,24,21.30
2014,06,12,14,25,21.30
2014,06,12,14,26,21.30
2014,06,12,14,27,21.30
2014,06,12,14,28,21.40
2014,06,12,14,29,21.40
2014,06,12,14,30,21.50
2014,06,12,14,31,21.50
2014,06,12,14,32,21.60
2014,06,12,14,33,21.60
2014,06,12,14,34,21.70
2014,06,12,14,35,21.80
2014,06,12,14,36,21.80
2014,06,12,14,37,21.80
2014,06,12,14,38,21.80
2014,06,12,14,39,21.70
2014,06,12,14,40,21.70
2014,06,12,14,41,21.80
2014,06,12,14,42,21.80
2014,06,12,14,43,21.80
2014,06,12,14,44,21.80
2014,06,12,14,45,21.90
2014,06,12,14,46,22.00
2014,06,12,14,47,22.00
2014,06,12,14,48,22.00
2014,06,12,14,49,22.00
2014,06,12,14,50,22.00
2014,06,12,14,51,22.00
2014,06,12,14,52,22.00
2014,06,12,14,53,22.00
2014,06,12,14,54,22.10
2014,06,12,14,55,22.00
2014,06,12,14,56,22.10
2014,06,12,14,57,22.10
2014,06,12,14,58,22.10
2014,06,12,14,59,22.10
2014,06,12,15,00,22.10
2014,06,12,15,01,22.10
2014,06,12,15,02,22.00
2014,06,12,15,03,22.00
2014,06,12,15,04,22.00
2014,06,12,15,05,22.00
2014,06,12,15,06,22.00
2014,06,12,15,07,22.00
2014,06,12,15,08,22.00
2014,06,12,15,09,21.90
2014,06,12,15,10,21.90
2014,06,12,15,11,22.00
2014,06,12,15,12,22.10
2014,06,12,15,13,22.10
2014,06,12,15,14,22.20
2014,06,12,15,15,22.20
2014,06,12,15,16,22.30
2014,06,12,15,17,22.30
2014,06,12,15,18,22.40
2014,06,12,15,19,22.50
2014,06,12,15,20,22.60
2014,06,12,15,21,22.70
2014,06,12,15,22,22.60
2014,06,12,15,23,22.60
2014,06,12,15,24,22.50
2014,06,12,15,25,22.40
2014,06,12,15,26,22.30
2014,06,12,15,27,22.20
2014,06,12,15,28,22.20
2014,06,12,15,29,22.20
2014,06,12,15,30,22.20
2014,06,12,15,31,22.30
2014,06,12,15,32,22.40
2014,06,12,15,33,22.50
2014,06,12,15,34,22.60
2014,06,12,15,35,22.70
2014,06,12,15,36,22.80
2014,06,12,15,37,22.90
2014,06,12,15,38,23.00
2014,06,12,15,39,23.00
2014,06,12,15,40,23.00
2014,06,12,15,41,23.00
2014,06,12,15,42,23.00
2014,06,12,15,43,22.90
2014,06,12,15,44,22.90
2014,06,12,15,45,22.80
2014,06,12,15,46,22.80
2014,06,12,15,47,22.80
2014,06,12,15,48,22.80
2014,06,12,15,49,22.70
2014,06,12,15,50,22.70
2014,06,12,15,51,22.60
2014,06,12,15,52,22.50
2014,06,12,15,53,22.50
2014,06,12,15,54,22.50
2014,06,12,15,55,22.60
2014,06,12,15,56,22.70
2014,06,12,15,57,22.70
2014,06,12,15,58,22.80
2014,06,12,15,59,22.90
2014,06,12,16,00,23.00
2014,06,12,16,01,23.10
2014,06,12,16,02,23.20
2014,06,12,16,03,23.20
2014,06,12,16,04,23.20
2014,06,12,16,05,23.20
2014,06,12,16,06,23.10
2014,06,12,16,07,23.10
2014,06,12,16,08,23.00
2014,06,12,16,09,23.00
2014,06,12,16,10,22.90
2014,06,12,16,11,22.90
2014,06,12,16,12,22.90
2014,06,12,16,13,22.90
2014,06,12,16,14,22.90
2014,06,12,16,15,22.90
2014,06,12,16,16,22.70
2014,06,12,16,17,22.60
2014,06,12,16,18,22.60
2014,06,12,16,19,22.60
2014,06,12,16,20,22.60
2014,06,12,16,21,22.60
2014,06,12,16,22,22.50
2014,06,12,16,23,22.40
2014,06,12,16,24,22.40
2014,06,12,16,25,22.40
2014,06,12,16,26,22.40
2014,06,12,16,27,22.30
2014,06,12,16,28,22.30
2014,06,12,16,29,22.30
2014,06,12,16,30,22.30
2014,06,12,16,31,22.30
2014,06,12,16,32,22.40
2014,06,12,16,33,22.50
2014,06,12,16,34,22.50
2014,06,12,16,35,22.60
2014,06,12,16,36,22.60
2014,06,12,16,37,22.60
2014,06,12,16,38,22.60
2014,06,12,16,39,22.60
2014,06,12,16,40,22.60
2014,06,12,16,41,22.60
2014,06,12,16,42,22.60
2014,06,12,16,43,22.60
2014,06,12,16,44,22.60
2014,06,12,16,45,22.60
2014,06,12,16,46,22.70
2014,06,12,16,47,22.70
2014,06,12,16,48,22.80
2014,06,12,16,49,22.80
2014,06,12,16,50,22.80
2014,06,12,16,51,22.80
2014,06,12,16,52,22.80
2014,06,12,16,53,22.80
2014,06,12,16,54,22.80
2014,06,12,16,55,22.80
2014,06,12,16,56,22.80
2014,06,12,16,57,22.80
2014,06,12,16,58,22.80
2014,06,12,16,59,22.70
2014,06,12,17,00,22.70
2014,06,12,17,01,22.70
2014,06,12,17,02,22.70
2014,06,12,17,03,22.70
2014,06,12,17,04,22.60
2014,06,12,17,05,22.60
2014,06,12,17,06,22.60
2014,06,12,17,07,22.70
2014,06,12,17,08,22.70
2014,06,12,17,09,22.60
2014,06,12,17,10,22.60
2014,06,12,17,11,22.50
2014,06,12,17,12,22.50
2014,06,12,17,13,22.40
2014,06,12,17,14,22.40
2014,06,12,17,15,22.40
2014,06,12,17,16,22.30
2014,06,12,17,17,22.30
2014,06,12,17,18,22.30
2014,06,12,17,19,22.20